Regional Weather Roundup
Issued by NWS

Home | Current Version | Previous Version | Text Only | Print | Product List | Glossary On
Versions: 1 2 3 4 5 6 7 8 9 10 11 12 13 14 15 16 17 18 19 20 21 22 23 24 25 26 27 28 29 30 31 32 33 34 35 36 37 38 39 40 41 42 43 44 45 46 47 48 49 50
000
ASUS45 KSLC 182310
RWRUT

UTAH REGIONAL WEATHER ROUNDUP
NATIONAL WEATHER SERVICE SALT LAKE CITY UT
400 PM MST MON DEC 18 2017

UTZ001>011-023>025-190000-

NORTHERN UTAH

CITY           SKY/WX    TMP DP  RH WIND       PRES   REMARKS
BRIGHAM CITY   CLOUDY    38  23  55 S3        30.25F
DUGWAY         MOCLDY    40  19  42 VRB2      30.22F
HILL AFB       PTCLDY    37  22  55 CALM      30.23S
LOGAN          PTCLDY    40  24  53 CALM      30.23F
OGDEN          PTCLDY    39  21  48 CALM      30.23F
SALT LAKE CITY MOCLDY    43  24  47 NW5       30.24S
TOOELE VALLEY  CLEAR     36  27  69 CALM      30.25S
WENDOVER       PTCLDY    33  19  56 E6        30.24S WCI  28
HEBER CITY       N/A     37  19  48 CALM      30.18S
WEST JORDAN    CLEAR     39  21  47 CALM      30.24S

$$

UTZ011>015-024>027-190000-

CENTRAL/NORTHEAST UTAH

CITY           SKY/WX    TMP DP  RH WIND       PRES   REMARKS
PROVO AIRPORT  CLEAR     36  21  54 CALM      30.25S
MOAB/CANYONLAN CLEAR     42  14  32 CALM      30.17F
DELTA          CLEAR     37  21  52 CALM      30.23S
PRICE          CLEAR     42  13  30 CALM      30.16S
RICHFIELD      SUNNY     41  18  38 CALM      30.21
ROOSEVELT      CLOUDY    37  16  41 CALM      30.19S
VERNAL         CLOUDY    38  16  40 CALM      30.17S

$$

UTZ013>016-019>022-027-190000-

SOUTHERN UTAH

CITY           SKY/WX    TMP DP  RH WIND       PRES   REMARKS
BRYCE CANYON   SUNNY     45  22  40 NE10      30.19R
CEDAR CITY     SUNNY     43  18  36 N6        30.17F
MILFORD        SUNNY     42  18  37 N8        30.21R
ST GEORGE      CLEAR     51  19  28 CALM      30.16F
HANKSVILLE     CLEAR     45  14  29 CALM      30.20S
KANAB          SUNNY     52  12  20 S3        30.19R
BLANDING         N/A     43  12  28 S7        30.22R

$$

REGIONAL REPORTS     COLORADO/ARIZONA

CITY           SKY/WX    TMP DP  RH WIND       PRES   REMARKS
CRAIG, CO      CLOUDY    33  19  56 CALM      30.16R
GRAND JUNCTION CLOUDY    40  15  36 NW5       30.18F
RIFLE, CO      CLOUDY    38  12  34 CALM      30.18S
MONTROSE, CO   CLEAR     39   7  26 N5        30.19R
CORTEZ, CO     CLEAR     44   8  23 SW6       30.13F
COLORADO CITY    N/A     52  18  25 CALM      30.18S
PAGE, AZ       SUNNY     47  19  33 CALM      30.16S
GRAND CANYON   SUNNY     48   7  18 NW7       30.17R
KINGMAN, AZ    SUNNY     56  17  21 N5        30.15F
FLAGSTAFF, AZ  SUNNY     47   9  21 E8        30.15R

$$

REGIONAL REPORTS    NEVADA/IDAHO/WYOMING

CITY           SKY/WX    TMP DP  RH WIND       PRES   REMARKS
LAS VEGAS, NV  MOSUNNY   58  15  18 CALM      30.15F
ELY, NY        SUNNY     51  24  34 N9        30.19S
ELKO, NV       MOSUNNY   40  17  39 SW5       30.22F
POCATELLO, ID  CLOUDY    41  28  60 S14       30.14R
BURLEY, ID     PTCLDY    45  27  49 SW12      30.14S
FORT BRIDGER,  MOCLDY    40  27  61 W20G25    30.17S WCI  30
EVANSTON, WY   CLOUDY    35  27  72 W13       30.18R WCI  26
ROCK SPRINGS,  CLOUDY    36  24  62 W24G37    30.11R WCI  24

$$



USA.gov is the U.S. government's official web portal to all federal, state and local government web resources and services.